Regional Weather Roundup
Issued by NWS

Home | Current Version | Previous Version | Graphics & Text | Print | Product List | Glossary On
Versions: 1 2 3 4 5 6 7 8 9 10 11 12 13 14 15 16 17 18 19 20 21 22 23 24 25 26 27 28 29 30 31 32 33 34 35 36 37 38 39 40 41 42 43 44 45 46 47 48 49 50
187
ASUS45 KPSR 120510
RWRAZ

ARIZONA HOURLY REGIONAL WEATHER ROUNDUP
NATIONAL WEATHER SERVICE PHOENIX AZ
1000 PM MST THU FEB 11 2016

NOTE: FAIR INDICATES FEW OR NO CLOUDS BELOW 12,000 FEET WITH NO
SIGNIFICANT WEATHER AND/OR OBSTRUCTIONS TO VISIBILITY.

AZZ001>003-036-120600-
NORTHWEST ARIZONA

CITY           SKY/WX    TMP DP  RH WIND       PRES   REMARKS
BULLHEAD CITY  CLEAR     64  32  29 N5        30.17R
KINGMAN        CLEAR     44  26  49 SE6       30.27R
$$

AZZ004>008-015-016-018-120600-
NORTH CENTRAL ARIZONA

CITY           SKY/WX    TMP DP  RH WIND       PRES   REMARKS
GRAND CANYON   PTCLDY    28  20  71 CALM      30.41R
WILLIAMS       PTCLDY    36  21  55 S13       30.45R WCI  27
PRESCOTT       CLEAR     46  25  43 S5        30.32R
FLAGSTAFF      MOCLDY    28  19  69 CALM      30.42R
PAYSON         CLEAR     52  18  25 N5        30.33S
PAGE           MOCLDY    43  29  57 CALM      30.36R
$$

AZZ009>014-017-120600-
NORTHEAST ARIZONA

CITY           SKY/WX    TMP DP  RH WIND       PRES   REMARKS
WINSLOW        CLOUDY    35  16  45 CALM      30.35R
SAINT JOHNS    CLEAR     38  14  37 S8        30.36S WCI  32
WINDOW ROCK    CLEAR     30   0  27 N3        30.41R
SHOW LOW       PTCLDY    34  14  44 CALM      30.39F
$$

AZZ023-120600-
GREATER PHOENIX AREA

CITY           SKY/WX    TMP DP  RH WIND       PRES   REMARKS
PHOENIX        CLEAR     68  35  29 CALM      30.11R
BUCKEYE        CLEAR     59  30  33 N10       30.14R
LUKE AFB       CLEAR     60  36  41 N6        30.11R
DEER VALLEY    CLEAR     64  32  30 NE9       30.13S
SCOTTSDALE     CLEAR     63  32  31 CALM      30.14S
MESA-GATEWAY   CLEAR     57  34  41 SE5       30.14R
$$

AZZ027-028-120600-
SOUTHWEST MARICOPA COUNTY AND PINAL COUNTY

CITY           SKY/WX    TMP DP  RH WIND       PRES   REMARKS
CASA GRANDE    CLEAR     59  28  31 CALM      30.14S
GILA BEND      FAIR      59  33  37 SE10      30.10S
$$

AZZ503-504-507>509-120600-
SOUTHEAST ARIZONA

CITY           SKY/WX    TMP DP  RH WIND       PRES   REMARKS
TUCSON         CLEAR     57  26  30 SE7       30.20R
DAVIS-MONTHAN  CLEAR     56  28  34 SE7       30.18R
NOGALES        CLEAR     51  17  26 NE3       30.23S
SIERRA VISTA   CLEAR     50  17  26 S8        30.28S
DOUGLAS        CLEAR     46   9  22 N8        30.25R
SAFFORD        CLEAR     49  22  34 NE3       30.20R
$$

AZZ020-021-025-026-031-120600-
SOUTHWEST ARIZONA

CITY           SKY/WX    TMP DP  RH WIND       PRES   REMARKS
YUMA           CLEAR     65  30  27 CALM      30.09S
$$

CAZ031-033-041-043-047-048-061-120600-
SOUTHERN CALIFORNIA

CITY           SKY/WX    TMP DP  RH WIND       PRES   REMARKS
DOWNTOWN L.A.  CLEAR     65  40  39 CALM      30.10R
L.A. AIRPORT   CLEAR     65  42  43 CALM      30.11R
SAN DIEGO      CLEAR     67  43  41 CALM      30.11S
BURBANK        CLEAR     67  35  30 CALM      30.11R
ONTARIO        CLEAR     65  38  36 CALM      30.13R
RIVERSIDE      CLEAR     65  36  34 E3        30.14R
PALM SPRINGS   CLEAR     66  30  26 NW7       30.14S
EL CENTRO NAS  CLEAR     60  30  32 W5        30.11R
IMPERIAL       CLEAR     58  35  42 W3        30.09R
BLYTHE         CLEAR     60  26  27 N9        30.12R
NEEDLES        CLEAR     62  25  24 W8        30.16R
$$

NVZ020-UTZ003-120600-
SOUTHERN NEVADA-UTAH

CITY           SKY/WX    TMP DP  RH WIND       PRES   REMARKS
LAS VEGAS      CLEAR     58  24  27 S3        30.19R
SALT LAKE CITY CLOUDY    29  27  92 S3        30.40F FOG
$$

NMZ009-TXZ055-120600-
NEW MEXICO-WEST TEXAS

CITY           SKY/WX    TMP DP  RH WIND       PRES   REMARKS
ALBUQUERQUE    CLOUDY    49  18  29 N5        30.33R
EL PASO        CLEAR     54  19  25 S5        30.23S
$$


........................KEY........................
SKY/WX - SKY CONDITION/WEATHER
TMP    - TEMPERATURE IN FAHRENHEIT
DP     - DEW POINT IN FAHRENHEIT
RH     - RELATIVE HUMIDITY IN PERCENT
WIND   - DIRECTION AND SPEED IN MILES PER HOUR (MPH)
VRB    - VARIABLE WIND DIRECTION
PRES   - MEAN SEA LEVEL PRESSURE IN INCHES OF MERCURY
         F - FALLING PRESSURE   R - RISING PRESSURE
         S - STEADY PRESSURE
VSB    - VISIBILITY IN MILES
HX     - HEAT INDEX IN FAHRENHEIT
WCI    - WIND CHILL INDEX IN FAHRENHEIT
TC     - TEMPERATURE IN CELSIUS WHICH IS ALSO KNOWN AS
         TEMPERATURE IN CENTIGRADE
AFB    - AIR FORCE BASE
         LUKE AFB IS LUKE AIR FORCE BASE
         DAVIS-MONTHAN IS DAVIS-MONTHAN AIR FORCE BASE
NAS    - NAVAL AIR STATION
         EL CENTRO NAS IS EL CENTRO NAVAL AIR STATION
N/A    - NOT AVAILABLE





USA.gov is the U.S. government's official web portal to all federal, state and local government web resources and services.